Simultaneous Nadir Overpasses (SNOs) Predictions

Prediction of SNOs between GOES-17 and METOP-A Satellite Orbit:

Table of predicted SNOs for the next 14.0 days since TLE Epoch: 10/12/2019
Index Date Time (GOES-17) GOES-17 Lat,Lon METOP-A Lat,Lon Distance(km) Time Diff (sec)
1 10/12/2019 05:57:23 -0.02,-137.20 0.42,-135.19 228.50 80
2 10/13/2019 18:16:16 0.02,-137.20 0.57,-139.79 294.94 80
3 10/14/2019 17:58:17 0.02,-137.19 -0.50,-134.80 272.00 80
4 10/16/2019 06:17:18 -0.01,-137.18 -0.51,-139.43 256.44 80
5 10/17/2019 05:53:59 -0.01,-137.17 0.56,-134.44 309.88 80
6 10/18/2019 18:12:52 0.01,-137.15 0.43,-139.04 215.30 80
7 10/19/2019 17:54:53 0.00,-137.13 -0.65,-134.05 350.44 80
8 10/21/2019 06:11:14 -0.00,-137.10 -0.36,-138.68 179.75 80
9 10/22/2019 05:53:15 -0.00,-137.08 0.77,-133.70 385.50 80
10 10/23/2019 18:09:28 -0.00,-137.05 0.28,-138.29 141.03 80
11 10/24/2019 17:51:28 -0.00,-137.03 -0.80,-133.30 424.03 80




NCC Satellite Simultaneous Nadir Overpasses (SNOs) Prediction Service
